Morgantown, WV

4:19 AM EDT on May 26, 2018 (GMT -0400)
Morgantown Municipal-Hart

Weather History for KMGW - May, 2013

Change the Weather History Date:

Saturday, May 4, 2013

  Actual Average Record
Temperature  
Mean Temperature 61 °F 58 °F  
Max Temperature 72 °F 70 °F 89 °F (1949)
Min Temperature 49 °F 47 °F 28 °F (1900)
Degree Days  
Heating Degree Days 4 8  
Month to date heating degree days 5 32  
Since 1 July heating degree days 4767 5015  
Cooling Degree Days 0 1  
Month to date cooling degree days 3 4  
Year to date cooling degree days 40 20  
Growing Degree Days 10 (Base 50)    
Moisture  
Dew Point 35 °F    
Average Humidity 38    
Maximum Humidity 51    
Minimum Humidity 25    
Precipitation  
Precipitation 0.00 in 0.14 in 2.22 in (2009)
Month to date precipitation 0.00 0.53  
Year to date precipitation 8.77 13.11  
Sea Level Pressure  
Sea Level Pressure 30.15 in    
Wind  
Wind Speed 9 mph (ESE)    
Max Wind Speed 17 mph    
Max Gust Speed 25 mph    
Visibility 10 miles    
Events      
T = Trace of Precipitation, MM = Missing Value Source: NWS Daily Summary

Daily Weather History Graph

Daily Weather History Graph

Search for Another Location

Airport or City:

Astronomy

May. 04, 2013 Rise Set
Actual Time 6:16 AM EDT 8:16 PM EDT
Civil Twilight 5:47 AM EDT 8:46 PM EDT
Nautical Twilight 5:11 AM EDT 9:22 PM EDT
Astronomical Twilight 4:32 AM EDT 10:01 PM EDT
Moon 3:13 AM EDT (5/4) 3:13 PM EDT (5/4)
Length of Visible Light 14h 59m
Length of Day
14h 00m
Waning Crescent, 27% of the Moon is Illuminated
May 4
Waning Crescent
May 9
New
May 18
First Quarter
May 25
Full
May 31
Last Quarter

Hourly Weather History & Observations

Time (EDT) Temp. Dew Point Humidity Pressure Visibility Wind Dir Wind Speed Gust Speed Precip Events Conditions
12:53 AM 55.9 °F 33.1 °F 42% 30.20 in 10.0 mi Variable 6.9 mph 18.4 mph N/A   Clear
1:53 AM 54.0 °F 26.1 °F 34% 30.19 in 10.0 mi East 5.8 mph - N/A   Clear
2:53 AM 52.0 °F 25.0 °F 35% 30.18 in 10.0 mi SE 8.1 mph - N/A   Clear
3:53 AM 52.0 °F 25.0 °F 35% 30.16 in 10.0 mi ESE 10.4 mph 20.7 mph N/A   Clear
4:53 AM 50.0 °F 26.1 °F 39% 30.17 in 10.0 mi SE 5.8 mph - N/A   Clear
5:53 AM 50.0 °F 30.0 °F 46% 30.17 in 10.0 mi ESE 9.2 mph 16.1 mph N/A   Clear
6:53 AM 50.0 °F 32.0 °F 50% 30.19 in 10.0 mi Variable 3.5 mph - N/A   Clear
7:53 AM 51.1 °F 34.0 °F 52% 30.19 in 10.0 mi East 9.2 mph 17.3 mph N/A   Clear
8:53 AM 53.1 °F 35.1 °F 50% 30.20 in 10.0 mi East 8.1 mph - N/A   Clear
9:53 AM 57.0 °F 36.0 °F 45% 30.19 in 10.0 mi East 8.1 mph - N/A   Clear
10:53 AM 61.0 °F 37.0 °F 41% 30.18 in 10.0 mi East 10.4 mph 17.3 mph N/A   Clear
11:53 AM 64.9 °F 35.1 °F 33% 30.17 in 10.0 mi SE 9.2 mph 17.3 mph N/A   Clear
12:53 PM 66.9 °F 30.9 °F 26% 30.15 in 10.0 mi SE 13.8 mph 20.7 mph N/A   Clear
1:53 PM 70.0 °F 32.0 °F 25% 30.14 in 10.0 mi ESE 15.0 mph 21.9 mph N/A   Clear
2:53 PM 71.1 °F 37.0 °F 29% 30.12 in 10.0 mi ESE 12.7 mph 21.9 mph N/A   Clear
3:53 PM 69.1 °F 39.9 °F 35% 30.11 in 10.0 mi ESE 11.5 mph 19.6 mph N/A   Clear
4:53 PM 70.0 °F 39.0 °F 32% 30.09 in 10.0 mi ESE 9.2 mph 25.3 mph N/A   Clear
5:53 PM 69.1 °F 39.9 °F 35% 30.09 in 10.0 mi ENE 12.7 mph 19.6 mph N/A   Clear
6:53 PM 66.9 °F 39.9 °F 37% 30.10 in 10.0 mi East 9.2 mph 18.4 mph N/A   Clear
7:53 PM 64.0 °F 39.9 °F 41% 30.11 in 10.0 mi East 11.5 mph 18.4 mph N/A   Clear
8:53 PM 62.1 °F 39.0 °F 43% 30.14 in 10.0 mi East 9.2 mph - N/A   Clear
9:53 PM 61.0 °F 39.0 °F 44% 30.15 in 10.0 mi East 6.9 mph - N/A   Clear
10:53 PM 59.0 °F 39.0 °F 48% 30.15 in 10.0 mi ESE 6.9 mph - N/A   Clear
11:53 PM 57.9 °F 39.9 °F 51% 30.14 in 10.0 mi SE 6.9 mph - N/A   Clear